Location: Bryzozowice
(50.3667°N, 18.9667°E)
Time: 19:04:27
(UTC+00:00)

H-2A R/B - Pass Details

Date: 24 January 2020
Orbit: 734 x 836 km, 98.2° (Epoch: 27 February)

Event Time Altitude Azimuth Distance (km) Brightness Sun altitude
Exits shadow 17:49:39 45° 35° (NE) 1,047 2.4 -23.1°
Drops below altitude 10° 17:53:44 10° 354° (N) 2,343 4.5 -23.8°
Sets 17:56:08 0° 350° (N) 3,292 5.4 -24.2°
